Lapse_Rate
5.9 5.6 5.5 5.4 5.5 5.2 4.8 4.5 4.3 4.0 3.9 3.8 4.0 4.3 4.4 4.5 4.6 4.6 4.8 5.0 5.1 5.2 5.4 5.7 6.0 6.1 6.1 6.4 6.3 6.1 6.3 6.3 5.9 5.8 6.1 6.3 6.1 6.1 6.0 5.9 5.5 5.9 5.9
5.8 5.4 5.3 5.2 5.2 4.9 4.5 4.2 4.1 4.0 3.9 4.0 4.1 4.1 4.1 4.2 4.2 4.3 4.5 4.8 4.9 5.3 5.8 6.0 6.0 6.1 6.2 6.3 6.4 6.1 5.9 5.8 5.8 5.7 5.8 6.3 6.2 6.1 6.2 6.1 5.9 5.8 6.3
5.6 5.4 5.0 5.1 5.1 4.8 4.6 4.3 4.2 3.9 3.8 3.7 3.8 3.9 4.0 4.2 4.4 4.8 5.2 5.4 5.6 5.9 6.1 6.1 6.2 6.2 6.1 6.3 6.5 6.4 6.0 6.4 5.7 5.7 5.8 5.7 6.2 6.5 6.4 6.3 6.4 6.1 5.9
5.4 5.2 5.1 5.2 5.0 4.7 4.5 4.3 4.0 3.8 3.6 3.7 3.8 3.8 3.9 4.1 4.3 4.8 5.2 5.5 5.7 5.9 6.1 6.3 6.2 6.3 6.4 6.4 6.5 6.5 6.3 6.4 6.4 5.8 5.8 5.9 5.8 6.8 6.9 6.5 6.3 6.3 6.1
5.4 5.2 5.3 5.2 4.8 4.6 4.3 4.1 3.9 3.7 3.5 3.6 3.7 3.8 3.9 4.1 4.7 5.2 5.3 5.6 6.0 6.0 6.0 6.1 6.2 6.3 6.5 6.5 6.6 6.5 6.3 6.3 6.3 6.2 6.1 6.0 6.1 6.2 6.9 7.2 6.3 6.2 6.0
5.6 5.5 5.3 4.8 4.8 4.3 4.1 4.0 3.7 3.5 3.5 3.6 3.7 3.9 3.9 4.3 4.8 5.2 5.4 6.0 6.2 6.4 6.5 6.5 6.4 6.5 6.7 6.7 6.8 6.6 6.5 6.3 6.2 6.1 6.1 6.3 6.3 6.3 6.3 6.9 7.1 6.1 6.0
5.5 5.3 4.9 4.8 4.5 4.1 3.9 3.7 3.5 3.5 3.6 3.7 4.0 4.0 4.2 4.8 5.0 5.2 5.7 6.1 6.4 6.5 6.5 6.5 6.5 6.6 6.9 7.0 6.9 6.9 6.7 6.6 6.5 6.1 6.3 6.3 6.3 6.3 6.3 6.4 6.7 6.8 6.5
5.3 4.9 5.0 4.6 4.0 3.9 3.8 3.5 3.4 3.5 3.6 3.8 4.0 4.3 4.6 5.0 5.2 5.5 5.9 6.1 6.3 6.4 6.4 6.4 6.3 6.5 6.7 6.8 6.9 7.0 6.9 6.7 6.6 6.5 6.4 6.4 6.2 6.1 6.3 6.3 6.3 6.5 6.4
5.1 4.8 4.4 4.0 4.0 3.8 3.5 3.3 3.5 3.6 3.8 4.0 4.2 4.5 5.0 5.2 5.6 5.9 6.1 6.3 6.3 6.3 6.3 6.2 6.2 6.3 6.5 6.5 6.8 7.1 6.9 6.8 6.7 6.6 6.5 6.5 6.4 6.0 6.1 6.3 6.1 5.8 6.2
4.9 4.5 4.2 4.1 3.7 3.3 3.2 3.5 3.8 3.9 3.9 3.9 4.3 4.9 5.3 5.5 5.8 6.1 6.3 6.4 6.3 6.3 6.2 6.2 6.2 6.2 6.2 6.2 6.4 6.9 6.9 6.8 6.7 6.6 6.5 6.5 6.4 6.2 5.9 5.9 6.1 5.7 5.7
4.7 4.4 4.0 3.5 3.3 3.5 3.7 3.8 3.7 3.6 3.8 4.2 4.8 5.4 5.6 5.8 6.1 6.2 6.4 6.4 6.4 6.2 6.1 6.0 6.1 6.1 6.1 6.0 6.0 6.3 6.6 6.5 6.5 6.4 6.4 6.4 6.3 6.1 5.9 5.8 5.9 5.8 5.7
4.5 4.0 3.7 3.7 3.8 3.7 3.7 3.6 3.6 3.9 4.2 4.5 5.4 5.8 6.0 6.1 6.3 6.4 6.4 6.4 6.4 6.2 6.0 5.9 6.0 6.0 6.0 6.0 5.9 6.0 6.1 6.3 6.3 6.3 6.3 6.3 6.1 6.1 5.9 5.7 5.7 5.8 5.6
4.3 4.0 3.9 3.9 3.8 3.7 3.7 3.9 4.1 4.2 4.3 5.1 5.8 6.1 6.3 6.4 6.5 6.5 6.4 6.3 6.3 6.2 6.1 6.0 6.0 6.0 6.0 6.0 5.9 5.9 5.9 6.1 6.1 6.2 6.3 6.2 6.1 6.1 6.0 5.9 5.7 5.6 5.6
4.3 4.1 4.2 4.0 3.8 3.7 3.9 4.1 4.3 4.4 4.9 5.8 6.2 6.3 6.5 6.7 6.6 6.5 6.4 6.3 6.2 6.2 6.1 6.1 6.1 6.0 6.0 5.9 5.9 5.9 6.0 6.0 6.1 6.0 6.2 6.3 6.2 6.2 6.1 5.9 5.9 5.7 5.5
4.6 4.5 4.2 4.0 3.8 3.9 3.9 4.2 4.6 4.8 5.6 6.1 6.2 6.3 6.6 6.6 6.4 6.3 6.2 6.1 6.0 5.9 6.0 6.0 6.0 6.0 5.9 5.9 5.9 5.9 6.0 6.1 6.1 6.0 6.0 6.2 6.2 6.1 6.1 6.0 5.9 5.8 5.6
4.6 4.3 4.1 3.9 3.9 3.9 4.0 4.5 4.6 5.2 6.0 6.2 6.1 6.3 6.4 6.4 6.1 5.9 5.8 5.6 5.5 5.5 5.5 5.6 5.7 5.8 5.8 5.7 5.7 5.8 5.9 5.9 6.0 6.0 5.9 6.1 6.2 6.2 6.1 6.0 5.9 5.8 5.7
4.3 4.0 4.0 4.0 3.7 3.8 4.2 4.4 4.7 5.7 6.1 5.9 6.0 6.2 6.1 5.9 5.7 5.5 5.3 5.1 5.1 5.2 5.2 5.3 5.3 5.5 5.5 5.5 5.5 5.5 5.6 5.8 5.8 5.9 5.9 5.8 6.1 6.2 6.3 6.2 6.0 5.8 5.7
4.0 3.9 4.0 3.8 3.8 3.9 4.2 4.5 5.3 6.0 5.9 5.8 5.9 5.8 5.7 5.7 5.5 5.3 5.2 5.2 5.1 5.1 5.2 5.3 5.4 5.4 5.3 5.3 5.2 5.2 5.3 5.4 5.6 5.6 5.7 5.8 5.9 6.1 6.3 6.3 6.3 6.0 5.8
4.1 4.1 4.0 3.8 3.7 3.9 4.3 4.9 5.6 5.7 5.6 5.7 5.7 5.6 5.5 5.5 5.3 5.1 5.1 5.1 5.1 5.2 5.1 5.2 5.4 5.5 5.6 5.5 5.4 5.4 5.5 5.5 5.5 5.4 5.4 5.5 5.7 5.8 6.1 6.3 6.3 6.2 6.0
4.1 4.0 3.8 3.7 3.8 4.1 4.8 5.6 5.7 5.6 5.6 5.6 5.7 5.4 5.3 5.1 4.9 5.0 5.1 5.1 5.2 5.2 5.2 5.4 5.3 5.6 5.9 5.8 5.7 5.6 5.5 5.6 5.6 5.6 5.7 5.5 5.6 5.5 5.8 6.2 6.3 6.4 6.4
4.0 3.9 3.8 3.8 4.0 4.5 5.4 5.7 5.5 5.4 5.6 5.6 5.4 5.3 5.1 4.9 4.9 5.0 5.1 5.1 5.3 5.4 5.4 5.6 5.6 5.8 6.0 6.2 6.2 6.0 5.8 5.9 6.0 6.0 6.0 5.9 5.7 5.5 5.4 5.8 6.3 6.5 6.2
3.8 3.8 3.8 4.0 4.4 5.0 5.7 5.6 5.5 5.5 5.6 5.5 5.3 5.3 5.1 5.1 5.2 5.4 5.4 5.5 5.4 5.6 5.6 5.9 6.1 6.2 6.2 6.4 6.5 6.4 6.3 6.0 6.1 6.3 6.3 6.3 5.9 5.7 5.4 5.6 6.1 6.3 6.3
4.0 3.9 4.2 4.4 4.9 5.3 5.6 5.6 5.5 5.5 5.6 5.4 5.3 5.2 5.4 5.7 5.9 5.9 5.7 5.9 5.6 5.8 6.0 6.3 6.6 6.5 6.4 6.6 6.7 6.7 6.6 6.8 6.5 6.5 6.4 6.4 6.2 5.9 5.4 5.4 5.8 6.0 6.2
4.0 4.2 4.4 4.9 5.3 5.5 5.5 5.4 5.5 5.5 5.4 5.4 5.3 5.5 6.1 6.5 6.3 6.0 5.7 5.9 5.9 6.1 6.3 6.5 6.8 6.9 6.8 6.8 6.9 6.9 6.9 6.8 6.5 6.3 6.3 6.3 6.3 6.1 5.8 5.6 5.8 6.0 6.1
4.1 4.3 4.7 5.3 5.6 5.6 5.5 5.4 5.4 5.4 5.2 5.3 5.6 6.2 6.5 6.5 6.5 6.1 5.8 6.1 6.1 6.4 6.6 6.6 6.8 6.9 6.9 6.8 6.7 6.6 6.7 6.6 6.4 6.3 6.3 6.2 6.3 6.3 6.2 6.1 6.0 6.0 6.1
4.3 4.5 5.0 5.5 5.5 5.5 5.4 5.4 5.4 5.1 5.3 5.5 6.1 6.5 6.6 6.6 6.5 6.7 6.8 6.2 6.3 6.4 6.4 6.5 6.3 6.5 6.6 6.5 6.3 6.2 6.3 5.9 6.0 6.2 6.3 6.3 6.4 6.4 6.4 6.4 6.2 6.0 6.0
Wind_Speed
7 7 6 7 6 3 3 3 4 5 3 2 3 3 4 5 5 10 15 15 15 17 15 11 9 9 7 9 9 8 9 7 7 5 8 8 10 8 6 5 5 6 6
6 6 6 5 3 2 1 3 3 4 3 2 2 2 3 3 5 9 12 15 16 15 16 11 7 6 6 8 9 8 6 6 5 4 6 4 4 4 4 3 5 6 6
8 7 6 5 3 3 3 1 2 4 4 5 3 4 4 4 4 7 8 11 15 16 14 13 10 7 5 5 6 7 7 7 6 4 3 4 3 9 3 2 2 4 4
6 6 6 5 6 5 3 1 4 5 5 7 5 5 3 5 3 6 7 9 13 14 14 12 12 9 6 6 4 7 5 6 7 7 2 5 5 3 5 3 3 3 4
7 7 7 6 4 5 2 2 3 5 5 6 5 3 4 4 5 5 7 9 9 12 13 12 12 8 5 5 6 5 5 4 5 6 7 5 5 6 5 7 6 3 2
7 6 5 6 5 3 2 2 4 4 5 5 6 6 7 7 7 8 8 8 8 7 11 14 12 11 5 6 6 5 5 5 5 6 6 6 5 5 4 3 7 9 5
7 7 7 6 4 3 0 2 4 5 6 6 6 6 7 7 7 8 8 11 9 8 9 10 9 7 8 6 6 7 6 5 5 7 6 6 7 6 5 7 6 5 5
7 7 7 5 4 2 1 3 5 6 6 6 7 6 7 4 5 7 8 8 8 9 13 10 9 11 12 9 7 6 6 6 4 7 7 6 6 6 5 5 5 7 4
7 7 5 4 3 0 3 4 5 6 7 7 6 6 6 7 8 9 8 8 10 10 11 12 10 10 10 8 8 6 7 6 6 6 6 6 6 6 5 4 6 6 4
6 6 5 4 1 2 3 5 6 5 5 6 5 8 7 7 8 8 10 10 11 11 12 12 12 10 10 9 8 6 7 7 6 6 6 6 6 6 5 4 5 7 7
7 6 3 3 3 4 4 4 4 5 7 6 7 7 8 8 9 9 10 10 11 12 13 12 11 11 11 11 11 11 9 8 7 6 7 7 6 6 5 6 4 6 6
6 4 5 4 4 4 5 6 6 6 6 6 6 8 9 10 9 10 11 11 11 12 13 13 12 12 11 10 10 12 11 12 10 9 8 8 6 7 6 5 6 6 6
6 5 4 4 5 5 6 6 6 7 7 6 8 9 9 10 11 11 11 11 11 13 13 13 13 13 12 12 12 12 12 12 11 10 10 9 8 8 5 6 5 4 5
5 3 3 4 5 6 6 6 7 6 7 7 9 10 10 10 11 12 12 11 12 12 13 13 13 13 13 13 12 13 12 11 11 10 10 10 9 9 8 7 7 5 5
5 4 4 5 4 6 6 6 6 7 7 9 10 11 11 10 11 11 12 12 12 12 12 13 13 13 13 10 12 11 11 12 11 11 11 11 12 16 13 7 7 6 6
3 3 4 4 5 6 6 8 8 9 10 10 11 11 11 12 12 13 14 13 13 12 12 13 13 14 11 21 23 18 11 11 12 11 11 11 16 15 19 19 20 13 7
1 3 4 5 5 6 7 8 9 9 10 11 11 12 12 13 14 14 14 14 14 13 13 13 13 14 14 23 24 23 12 10 11 12 11 11 9 14 10 14 17 17 19
1 4 4 5 5 5 6 8 9 9 11 11 12 12 13 14 15 15 15 15 13 14 13 14 14 14 12 23 23 23 13 11 14 14 14 13 11 11 11 9 10 10 10
2 2 3 3 5 6 7 8 9 9 11 12 13 14 14 15 15 16 15 15 14 14 14 13 15 15 14 23 24 20 10 10 13 13 13 13 14 17 21 12 11 10 10
2 3 5 4 5 7 7 8 9 10 11 13 14 14 15 15 15 16 15 12 14 15 12 15 14 20 16 22 25 20 9 11 9 11 12 20 16 21 22 13 10 11 10
4 4 5 5 6 6 6 9 10 10 12 14 14 15 15 15 15 15 14 14 15 14 15 15 14 14 15 15 23 22 10 8 8 8 8 9 21 22 22 22 12 11 10
5 5 6 6 7 6 5 9 10 12 12 14 15 15 15 12 12 16 14 15 14 13 13 13 12 10 12 19 21 23 22 19 11 10 8 10 21 22 22 17 19 22 18
4 4 5 7 6 6 6 9 11 12 13 14 15 15 16 14 14 14 15 12 12 11 12 11 10 11 10 9 21 24 24 22 13 9 14 19 19 22 20 22 20 19 8
4 4 6 6 7 8 9 9 11 12 13 15 16 15 14 17 14 11 11 11 11 10 10 11 10 10 11 10 9 9 10 18 15 17 12 13 15 16 11 11 13 8 6
4 4 5 7 8 8 9 9 12 12 13 14 14 14 13 13 14 13 11 10 12 13 12 11 10 11 11 11 19 19 12 9 12 13 8 7 7 7 7 8 8 7 7
4 5 6 6 9 9 10 11 12 12 13 15 13 12 12 12 11 12 13 20 22 26 26 26 18 11 21 26 26 26 16 14 13 3 4 6 7 8 8 9 9 9 12
Wind_Direction
162 145 148 151 147 144 74 45 356 344 350 333 312 311 321 325 332 331 335 334 336 333 332 318 320 321 327 320 315 319 323 321 322 315 324 293 277 258 236 228 218 222 226
173 172 173 170 172 153 47 356 357 343 332 333 316 303 297 292 287 318 330 329 333 328 328 326 317 311 321 325 329 327 323 321 346 316 290 308 323 360 272 228 223 221 224
195 196 193 198 181 200 195 247 354 354 3 360 327 326 319 317 326 334 328 330 323 320 318 320 318 317 311 314 319 322 334 321 318 282 290 312 326 344 314 332 258 243 225
212 197 196 214 205 183 193 21 12 15 2 351 356 353 320 322 300 308 313 315 314 310 310 313 313 312 307 302 302 321 316 328 320 321 283 296 318 312 318 330 333 300 250
201 194 198 210 150 146 139 20 360 5 356 353 351 341 320 287 299 309 317 320 313 307 304 306 308 306 302 293 296 306 305 300 300 300 303 293 289 276 262 293 307 328 270
208 208 189 137 144 135 87 3 7 339 340 349 344 335 321 315 324 325 323 320 319 313 305 302 300 295 289 298 300 287 283 281 283 282 281 282 280 294 308 314 326 313 313
194 185 161 165 161 154 142 316 356 335 346 336 321 320 312 311 309 314 318 318 316 313 307 303 299 295 292 289 291 291 283 272 274 274 281 282 273 273 281 294 293 289 310
189 190 181 174 154 128 349 342 350 336 320 328 334 323 312 302 306 310 308 305 306 305 304 298 297 297 295 294 287 284 280 274 272 276 276 279 281 274 264 285 305 300 287
182 180 165 149 171 319 340 359 346 334 345 328 309 305 303 309 310 307 303 303 303 305 307 305 299 295 289 289 287 281 279 276 271 269 269 273 272 268 247 254 260 268 287
161 148 156 171 139 36 7 0 357 324 299 302 306 323 311 301 308 305 301 301 302 304 304 303 299 294 289 287 284 289 282 275 277 271 262 272 277 275 265 241 262 267 256
165 171 156 89 58 24 1 331 334 337 329 321 310 311 309 303 306 301 298 298 299 301 302 300 302 302 304 302 304 294 285 280 288 281 279 276 276 278 264 240 246 276 279
164 125 100 65 19 350 354 354 345 326 306 299 302 304 308 309 303 300 299 300 299 301 302 303 297 295 292 291 294 293 292 286 279 281 276 273 278 276 277 261 249 258 271
117 111 72 24 3 350 352 336 317 302 294 295 307 312 309 307 304 303 303 302 304 305 303 302 300 296 293 292 288 287 286 283 279 277 274 271 265 264 262 262 247 259 279
117 98 37 5 358 350 326 315 302 295 301 311 311 310 306 303 303 303 301 304 304 301 300 298 296 294 292 287 285 281 279 277 274 272 265 260 257 257 257 261 254 239 258
96 46 14 350 334 319 310 304 302 307 312 313 311 309 305 301 303 303 305 303 300 296 295 295 294 292 287 284 282 277 273 269 266 266 265 267 258 259 260 265 263 228 244
79 11 349 331 324 314 317 318 317 321 317 309 309 309 307 309 308 309 307 305 302 299 298 296 292 290 285 286 287 288 276 264 264 263 261 259 263 260 260 264 262 251 233
50 350 335 324 325 321 318 319 318 313 312 310 309 310 313 311 311 308 307 306 306 304 300 296 292 287 285 288 287 285 280 271 267 268 265 263 258 259 247 254 262 263 258
21 350 338 327 319 308 312 319 319 313 314 312 312 315 314 312 310 308 307 307 305 301 300 298 295 288 284 291 288 288 282 271 272 269 267 264 257 248 250 243 244 251 250
61 343 319 301 302 312 319 320 316 312 317 313 315 315 313 310 309 307 308 305 301 300 298 294 293 291 287 291 287 288 283 269 266 268 263 260 256 247 248 245 238 239 246
37 360 328 308 327 327 322 315 317 319 314 316 314 310 307 308 306 304 303 301 299 297 299 296 291 289 290 289 290 287 269 263 261 263 252 259 255 246 247 242 233 233 232
11 1 340 331 313 312 313 318 322 313 314 312 308 308 308 308 303 302 302 300 298 297 296 293 292 288 285 285 289 289 283 271 270 266 259 248 249 253 250 242 227 226 223
355 351 343 334 323 314 314 321 313 313 313 311 308 309 308 308 307 303 300 299 299 294 297 297 293 288 284 283 286 287 282 277 271 267 262 260 241 238 246 246 243 232 228
348 340 334 322 311 309 319 316 314 316 316 312 310 310 309 310 303 304 304 299 301 298 295 293 293 292 290 283 287 290 289 282 276 268 267 257 250 243 242 242 240 239 225
357 342 335 320 314 323 320 308 312 316 314 312 310 313 312 311 310 302 303 300 298 293 292 293 290 296 297 290 290 282 278 273 269 261 266 254 249 247 231 229 233 230 217
348 342 315 315 313 315 313 316 317 314 314 313 312 313 311 308 310 308 304 303 298 295 298 299 298 298 293 289 292 292 289 282 253 244 238 229 226 229 224 226 217 209 204
344 324 319 324 323 319 321 321 315 316 317 313 315 315 316 317 314 315 311 306 305 307 306 302 298 294 290 294 294 293 288 303 315 276 235 222 221 223 224 215 207 200 201